User: anonymous   Login
Location: Kalberh�ni
(46.4610°N, 7.2453°E)
Time: 11:36:40
(UTC+00:00)
Language:

SL-16 R/B - Orbit

View from above orbital plane
View from above orbital plane
View from above satellite
View from above satellite

Ground track
Ground track

The orbit data is extracted from the following two-line orbital elements,

1 27006U 01056F   21259.63486508 -.00000025  00000-0  21785-4 0  9991
2 27006  99.5374  31.9584 0013951 238.1443 132.6865 13.70968690989138
Epoch (UTC): 16 September 2021 15:14:12
Eccentricity: 0.0013951
inclination: 99.5374°
perigee height: 986 km
apogee height: 1006 km
right ascension of ascending node: 31.9584°
argument of perigee: 238.1443°
revolutions per day: 13.70968690
mean anomaly at epoch: 132.6865°
orbit number at epoch: 98913

The dashed part of the orbit path shows where the satellite is in the earth's shadow,  

DLR